AirNav   ProFlight Series 2 Aviation Headset
 
 1054 users online  

0FA3 Brighton Helipad Heliport
Brighton, Florida, USA

GOING TO BRIGHTON?


FAA INFORMATION EFFECTIVE 16 JULY 2020

Location

FAA Identifier: 0FA3
Lat/Long: 27-04-33.0000N 081-04-16.2000W
27-04.550000N 081-04.270000W
27.0758333,-81.0711667
(estimated)
Elevation: 23.5 ft. / 7 m
From city: 16 miles NE of BRIGHTON, FL
Time zone: UTC -4 (UTC -5 during Standard Time)
Zip code: 33471

Heliport Operations

Heliport use: Private use. Permission required prior to landing
Activation date: 10/2015
Control tower: no
ARTCC: MIAMI CENTER
FSS: MIAMI FLIGHT SERVICE STATION
Attendance: 
Wind indicator: yes
Segmented circle: yes

Heliport Communications

WX AWOS-3 at OBE (16 nm NE): 118.675 (863-467-1148)

Nearby radio navigation aids

VOR radial/distance  VOR name  Freq  Var
LBVr048/22.7LA BELLE VORTAC110.4001E
PHKr311/26.9PAHOKEE VOR/DME115.4000E

Heliport Services

Fuel available: A

Runway Information

Helipad H1

Dimensions: 20 x 20 ft. / 6 x 6 m
Surface: concrete
Traffic pattern: leftleft

Heliport Ownership and Management from official FAA records

Ownership: Privately-owned
Owner: SEMINOLE TRIBE OF FLORIDA
6300 STERLING ROAD
HOLLYWOOD, FL 33440
Manager: PEDRO RODRIGUEZ
35201 EAGLES LANDING
CLEWISTON, FL 33440
Phone 954-410-1396

Additional Remarks

FOR CD CTC MIAMI ARTCC AT 305-716-1731.

Instrument Procedures

There are no published instrument procedures at 0FA3.

Some nearby airports with instrument procedures:

KOBE - Okeechobee County Airport (16 nm NE)
2IS - Airglades Airport (20 nm S)
KPHK - Palm Beach County Glades Airport (27 nm SE)
KSEF - Sebring Regional Airport (27 nm NW)
X14 - La Belle Municipal Airport (28 nm SW)
 
Loc | Ops | Rwys | IFR | FBO | Links
Com | Nav | Svcs | Stats | Notes
Aerial photo
No photo
 
Airport distance calculator
Flying to Brighton Helipad Heliport? Find the distance to fly.

From to 0FA3

Sunrise and sunset
Times for 12-Aug-2020
 Local
(UTC-4)
 Zulu
(UTC)
Morning civil twilight06:3110:31
Sunrise06:5610:56
Sunset20:0300:03
Evening civil twilight20:2700:27

Current date and time
Zulu (UTC)  13-Aug-2020 02:46:45
Local (UTC-4)  12-Aug-2020 22:46:45
 
METAR
KOBE 
16nm NE 
130235Z AUTO 00000KT 10SM CLR 26/24 A3003 RMK AO2 LTG DSNT SW
K2IS 
20nm S 
130235Z AUTO 14005KT 10SM CLR A3004 RMK AO2 LTG DSNT SW
KSEF 
27nm NW 
130235Z AUTO 34003KT 10SM CLR 25/24 A3004 RMK AO2 T02530236
TAF
KFPR 
45nm NE 
121736Z 1218/1318 12011KT P6SM VCTS SCT035CB SCT060 BKN150 FM122200 15007KT P6SM VCSH FEW060 SCT120 BKN250 FM130100 VRB03KT P6SM FEW030 BKN250
KSUA 
46nm E 
121736Z 1218/1318 11009KT P6SM VCTS SCT035CB SCT060 BKN150 FM122200 15007KT P6SM VCSH FEW060 SCT120 BKN250 FM130100 VRB03KT P6SM FEW030 BKN250
KVRB 
49nm NE 
121736Z 1218/1318 10009KT P6SM VCTS SCT035CB SCT060 BKN150 FM122200 15007KT P6SM VCSH FEW060 SCT120 BKN250 FM130100 VRB03KT P6SM FEW030 BKN250
KRSW 
49nm SW 
121722Z 1218/1318 14006KT P6SM VCTS SCT040CB BKN250 FM122100 17007KT P6SM VCTS SCT040CB BKN250 FM130000 VRB03KT P6SM FEW030 SCT250 FM131700 14006KT P6SM VCTS SCT030CB BKN250
NOTAMs
Click for the latest NOTAMs
NOTAMs are issued by the DoD/FAA and will open in a separate window not controlled by AirNav.

 

 
 

Would you like to see your business listed on this page?

 If your business provides an interesting product or service to pilots, flight crews, aircraft, or users of the Brighton Helipad Heliport, you should consider listing it here.  To start the listing process, click on the button below
 
Add a business
 

Other Pages about Brighton Helipad Heliport

Update a link
 
Copyright © AirNav, LLC. All rights reserved. Privacy Policy  Contact